[[{"header":{"parameterUnit":"m.s-1","parameterCategory":1,"la1":30.2991,"la2":30.254,"lo1":-89.0895,"lo2":-89.0444,"dy":0.0017,"dx":0.0017,"nx":28,"ny":28,"refTime":"2024-08-19T09:00:00:Z","depth":0,"parameterNumber":2,"parameterNumberName":"U-component_of_WINDS"},"data":[0,0,0,0,0,0,0,0,0,0,0,0,0,0,0,0,0,0,0,0,0,0,0,0,0,0,0,0,0,0,0,0,0,0,0,0,0,0,0,0,0,0,0,0,0,0,0,0,0,0,0,0,0,0,0,0,0,0,-0.0673,-0.0674,0,-0.0739,-0.0739,-0.074,-0.0746,-0.0745,-0.0744,-0.0744,-0.081,-0.0812,-0.0814,0,0,0,0,0,0,0,0,0,0,0,0,0,-0.0551,-0.0553,-0.0673,-0.0674,-0.0674,-0.0739,-0.0739,-0.074,-0.0746,-0.0745,-0.0744,-0.0744,-0.0809,-0.0812,-0.0815,0,0,0,0,0,0,0,0,0,0,0,0,0,-0.0609,-0.0554,-0.0673,-0.0685,-0.0687,-0.0738,-0.0739,-0.0741,-0.0746,-0.0745,-0.0744,-0.0743,-0.0808,-0.0811,-0.0815,-0.0858,0,0,-0.0826,-0.0828,0,0,0,0,0,0,0,0,-0.0606,-0.0613,-0.0682,-0.0684,-0.0686,-0.0733,-0.0721,-0.078,-0.0746,-0.0724,-0.0744,-0.0743,-0.0785,-0.079,-0.0805,-0.0861,-0.0864,-0.0826,-0.0829,-0.083,-0.0831,0,0,0,0,0,0,0,-0.0602,-0.061,-0.0699,-0.0683,-0.0686,-0.0687,-0.0694,-0.0732,-0.0759,-0.0725,-0.0726,-0.0734,-0.0786,-0.0801,-0.0807,-0.0865,-0.0826,-0.083,-0.0832,-0.0833,-0.0961,-0.0962,0,0,0,0,0,0,-0.0595,-0.0607,-0.0697,-0.0701,-0.0643,-0.069,-0.0698,-0.0719,-0.0759,-0.0764,-0.0735,-0.0734,-0.0796,-0.0802,-0.0809,-0.0863,-0.083,-0.0833,-0.0836,-0.096,-0.0961,-0.0963,0,0,0,0,0,0,-0.0593,-0.0603,-0.0694,-0.0654,-0.0666,-0.0693,-0.0717,-0.0721,-0.0737,-0.0766,-0.0771,-0.0746,-0.0795,-0.0804,-0.0846,-0.0865,-0.0835,-0.0838,-0.0958,-0.096,-0.0962,-0.0971,0,0,0,0,0,0,-0.0589,-0.0602,-0.0619,-0.0655,-0.0668,-0.0731,-0.0718,-0.0723,-0.0743,-0.0743,-0.0778,-0.0782,-0.0795,-0.0841,-0.085,-0.087,-0.0841,-0.0957,-0.0959,-0.0961,-0.0969,-0.0973,-0.0976,0,0,0,0,0,-0.0585,-0.0619,-0.062,-0.0631,-0.069,-0.0732,-0.0739,-0.0754,-0.0744,-0.0762,-0.0781,-0.0781,-0.0862,-0.0845,-0.0855,-0.0877,-0.0956,-0.0959,-0.0961,-0.0968,-0.0972,-0.0976,0,0,0,0,0,0,-0.0584,-0.0624,-0.0626,-0.0672,-0.0699,-0.0733,-0.0755,-0.0758,-0.0788,-0.0786,-0.0802,-0.081,-0.0852,-0.0868,-0.0849,-0.0921,-0.0908,-0.0913,-0.0909,-0.0914,-0.0917,-0.0913,-0.0844,0,0,0,0,0,-0.059,-0.0621,-0.0653,-0.0691,-0.0704,-0.0727,-0.0746,-0.0755,-0.0783,-0.0794,-0.0816,-0.0843,-0.0874,-0.0895,-0.0925,-0.0971,-0.0979,-0.0991,-0.0994,-0.0997,-0.1001,-0.1028,-0.1034,-0.0972,-0.0972,-0.0972,0,0,-0.0601,-0.0626,-0.0645,-0.0692,-0.0713,-0.0745,-0.0737,-0.0771,-0.0794,-0.0799,-0.0841,-0.0858,-0.0889,-0.0934,-0.0954,-0.0949,-0.102,-0.1001,-0.1003,-0.1006,-0.1031,-0.1037,-0.1043,-0.0974,-0.0973,-0.0973,0,0,-0.0638,-0.066,-0.0695,-0.0717,-0.075,-0.0765,-0.0773,-0.0807,-0.0819,-0.0861,-0.0866,-0.0894,-0.0947,-0.0969,-0.0988,-0.1034,-0.1036,-0.1043,-0.1062,-0.1087,-0.1092,-0.1097,-0.1114,-0.112,-0.1047,-0.1047,-0.1047,0,-0.0648,-0.0697,-0.0712,-0.0746,-0.0767,-0.0773,-0.0808,-0.0828,-0.0869,-0.0883,-0.0876,-0.0944,-0.0965,-0.1016,-0.1027,-0.1041,-0.1051,-0.104,-0.109,-0.1095,-0.1099,-0.1116,-0.1123,-0.1048,-0.1048,-0.1047,-0.1047,0,-0.0707,-0.0741,-0.0765,-0.0806,-0.0829,-0.0863,-0.0883,-0.0905,-0.0911,-0.0927,-0.097,-0.0996,-0.1032,-0.1044,-0.1051,-0.1096,-0.1092,-0.1087,-0.1074,-0.1106,-0.1122,-0.1128,-0.1049,-0.1048,-0.1048,-0.1048,0,0,-0.0746,-0.0796,-0.0804,-0.0823,-0.086,-0.0887,-0.0921,-0.0957,-0.0976,-0.1004,-0.1033,-0.1079,-0.1075,-0.1096,-0.1105,-0.1127,-0.1163,-0.112,-0.1121,-0.1128,-0.1216,-0.122,-0.1227,-0.1164,-0.1165,-0.1166,-0.1213,0,-0.0789,-0.0852,-0.0866,-0.092,-0.0952,-0.0958,-0.0988,-0.1014,-0.103,-0.1059,-0.1075,-0.1108,-0.11,-0.1113,-0.1135,-0.1154,-0.1181,-0.1151,-0.1192,-0.1194,-0.1186,-0.1235,-0.1239,-0.1282,-0.122,-0.1221,-0.1221,0,-0.0847,-0.0877,-0.0935,-0.0969,-0.0982,-0.1009,-0.1044,-0.1071,-0.1101,-0.1111,-0.1134,-0.1141,-0.1177,-0.1162,-0.1212,-0.1191,-0.1209,-0.122,-0.1222,-0.1228,-0.121,-0.1243,-0.1296,-0.1303,-0.1231,-0.123,-0.123,0,-0.0871,-0.0926,-0.0968,-0.0984,-0.1024,-0.1043,-0.1061,-0.1089,-0.111,-0.114,-0.1154,-0.1187,-0.1206,-0.1231,-0.1247,-0.1234,-0.1296,-0.1282,-0.1306,-0.1305,-0.1319,-0.1318,-0.1378,-0.1329,-0.1328,-0.1328,-0.1328,0,-0.0917,-0.0952,-0.098,-0.1005,-0.1045,-0.1061,-0.11,-0.1117,-0.1142,-0.1172,-0.1178,-0.1205,-0.1224,-0.1253,-0.1265,-0.1306,-0.1314,-0.1323,-0.1326,-0.1323,-0.1322,-0.1336,-0.1334,-0.133,-0.133,-0.1329,-0.1329,0,-0.0951,-0.0971,-0.1017,-0.1052,-0.1061,-0.1089,-0.1119,-0.1144,-0.1159,-0.1196,-0.1206,-0.123,-0.1266,-0.1283,-0.1327,-0.1335,-0.1381,-0.1382,-0.1372,-0.1373,-0.1396,-0.1394,-0.1468,-0.1478,-0.1421,-0.1421,-0.1422,0,-0.098,-0.1008,-0.1046,-0.1066,-0.1085,-0.1117,-0.1139,-0.1155,-0.1178,-0.1214,-0.1235,-0.1271,-0.13,-0.1356,-0.1378,-0.1411,-0.1413,-0.1436,-0.1418,-0.1415,-0.1415,-0.1414,-0.1417,-0.144,-0.1441,-0.1441,-0.1441,0,-0.103,-0.1038,-0.107,-0.1105,-0.1131,-0.116,-0.1187,-0.1203,-0.1225,-0.1249,-0.1286,-0.1309,-0.1354,-0.139,-0.1425,-0.1442,-0.1446,-0.1447,-0.1454,-0.1452,-0.1446,-0.1451,-0.1382,-0.1445,-0.1445,-0.1445,-0.1444,-0.1444,-0.1063,-0.1088,-0.1119,-0.1154,-0.1177,-0.1203,-0.1229,-0.1248,-0.128,-0.1318,-0.1326,-0.1365,-0.1394,-0.1442,-0.146,-0.1491,-0.1486,-0.1496,-0.1499,-0.1502,-0.1504,-0.144,-0.1497,-0.1497,-0.1497,-0.1497,-0.1497,0,-0.1114,-0.1134,-0.1167,-0.1206,-0.1234,-0.1235,-0.1266,-0.1289,-0.1323,-0.1351,-0.138,-0.1422,-0.1457,-0.1481,-0.1516,-0.1536,-0.1539,-0.1545,-0.1544,-0.1549,-0.1506,-0.1496,-0.1543,-0.1543,-0.1543,-0.1543,-0.1543,-0.1543,-0.1144,-0.1187,-0.1199,-0.1253,-0.1273,-0.1313,-0.133,-0.1354,-0.1376,-0.1424,-0.1453,-0.1469,-0.1495,-0.1532,-0.1564,-0.157,-0.1584,-0.159,-0.1596,-0.1556,-0.1551,-0.1547,-0.1538,-0.1593,-0.1593,-0.1637,-0.1637,-0.1638]},{"header":{"parameterUnit":"m.s-1","parameterCategory":1,"la1":30.2991,"la2":30.254,"lo1":-89.0895,"lo2":-89.0444,"dy":0.0017,"dx":0.0017,"nx":28,"ny":28,"refTime":"2024-08-19T09:00:00:Z","depth":0,"parameterNumber":3,"parameterNumberName":"V-component_of_WINDS"},"data":[0,0,0,0,0,0,0,0,0,0,0,0,0,0,0,0,0,0,0,0,0,0,0,0,0,0,0,0,0,0,0,0,0,0,0,0,0,0,0,0,0,0,0,0,0,0,0,0,0,0,0,0,0,0,0,0,0,0,-3.0864,-3.0864,0,-3.0941,-3.0942,-3.0943,-3.0919,-3.0918,-3.0916,-3.0914,-3.0994,-3.0997,-3.1001,0,0,0,0,0,0,0,0,0,0,0,0,0,-3.0695,-3.0698,-3.0863,-3.0864,-3.0865,-3.0941,-3.0942,-3.0943,-3.0919,-3.0917,-3.0915,-3.0914,-3.0992,-3.0997,-3.1001,0,0,0,0,0,0,0,0,0,0,0,0,0,-3.077,-3.0699,-3.0863,-3.0863,-3.0863,-3.0941,-3.0942,-3.0944,-3.092,-3.0917,-3.0915,-3.0913,-3.0991,-3.0996,-3.1002,-3.1085,0,0,-3.1018,-3.1021,0,0,0,0,0,0,0,0,-3.0765,-3.0776,-3.0862,-3.0863,-3.0864,-3.0918,-3.0912,-3.0991,-3.0921,-3.0898,-3.0914,-3.0911,-3.097,-3.0977,-3.0997,-3.1088,-3.1092,-3.1019,-3.1022,-3.1025,-3.1026,0,0,0,0,0,0,0,-3.076,-3.0772,-3.0894,-3.0863,-3.0864,-3.0859,-3.0867,-3.0927,-3.0947,-3.09,-3.0899,-3.0908,-3.097,-3.0992,-3.0999,-3.1093,-3.1019,-3.1024,-3.1027,-3.1029,-3.1257,-3.126,0,0,0,0,0,0,-3.0754,-3.0768,-3.0892,-3.0897,-3.0808,-3.0864,-3.0873,-3.0903,-3.0947,-3.0951,-3.091,-3.0907,-3.0984,-3.0993,-3.1002,-3.1103,-3.1024,-3.103,-3.1033,-3.1254,-3.1258,-3.1261,0,0,0,0,0,0,-3.0751,-3.0766,-3.0889,-3.0832,-3.0847,-3.0869,-3.0904,-3.0906,-3.0928,-3.0954,-3.0958,-3.0929,-3.0983,-3.0994,-3.1065,-3.1105,-3.1032,-3.1037,-3.1251,-3.1255,-3.1259,-3.1304,0,0,0,0,0,0,-3.0746,-3.0765,-3.0796,-3.0833,-3.085,-3.095,-3.0906,-3.0909,-3.0937,-3.0933,-3.0972,-3.0976,-3.0981,-3.1057,-3.107,-3.1111,-3.1041,-3.1248,-3.1253,-3.1258,-3.1299,-3.1309,-3.1318,0,0,0,0,0,-3.074,-3.0805,-3.0798,-3.0813,-3.089,-3.0952,-3.0962,-3.0967,-3.094,-3.0973,-3.099,-3.0975,-3.1098,-3.1064,-3.1079,-3.1122,-3.1245,-3.1251,-3.1258,-3.1295,-3.1307,-3.1318,0,0,0,0,0,0,-3.0772,-3.081,-3.0802,-3.0881,-3.0914,-3.0948,-3.0989,-3.098,-3.1021,-3.1015,-3.1019,-3.1028,-3.1101,-3.1119,-3.1079,-3.1206,-3.1168,-3.1177,-3.1191,-3.1203,-3.1212,-3.1207,-3.1046,0,0,0,0,0,-3.0788,-3.0835,-3.0866,-3.0933,-3.095,-3.0967,-3.0994,-3.0995,-3.1029,-3.1042,-3.1065,-3.1098,-3.1144,-3.1175,-3.1219,-3.1302,-3.131,-3.1339,-3.1349,-3.1356,-3.1364,-3.1411,-3.1424,-3.1281,-3.1281,-3.1281,0,0,-3.0822,-3.0849,-3.0878,-3.094,-3.0965,-3.1015,-3.0978,-3.1031,-3.1068,-3.105,-3.1118,-3.1136,-3.1174,-3.1251,-3.1286,-3.1268,-3.1406,-3.1364,-3.137,-3.1374,-3.1418,-3.1432,-3.1444,-3.1286,-3.1285,-3.1284,0,0,-3.0909,-3.0934,-3.0992,-3.1019,-3.1058,-3.1069,-3.1084,-3.112,-3.1131,-3.12,-3.1188,-3.1231,-3.1311,-3.1339,-3.1363,-3.1462,-3.1451,-3.1477,-3.1526,-3.1571,-3.1582,-3.1592,-3.1628,-3.1641,-3.1485,-3.1485,-3.1485,0,-3.0946,-3.102,-3.1024,-3.1079,-3.1106,-3.1093,-3.1153,-3.1179,-3.123,-3.125,-3.1229,-3.1329,-3.1354,-3.1438,-3.1462,-3.1482,-3.1499,-3.1472,-3.158,-3.159,-3.16,-3.1634,-3.1647,-3.1488,-3.1487,-3.1487,-3.1487,0,-3.1064,-3.1115,-3.1158,-3.1208,-3.1241,-3.1298,-3.1311,-3.1344,-3.1343,-3.1356,-3.1427,-3.1456,-3.1506,-3.1526,-3.1525,-3.161,-3.1598,-3.1579,-3.1541,-3.1616,-3.1648,-3.1662,-3.1492,-3.1491,-3.149,-3.1489,0,0,-3.1172,-3.1225,-3.1241,-3.1264,-3.1307,-3.1347,-3.1404,-3.1453,-3.1482,-3.1518,-3.1566,-3.1635,-3.1618,-3.1645,-3.1647,-3.1687,-3.1765,-3.1663,-3.1664,-3.1681,-3.1862,-3.1876,-3.1891,-3.1757,-3.176,-3.1762,-3.1859,0,-3.1263,-3.1363,-3.1369,-3.1459,-3.1507,-3.1496,-3.1546,-3.1578,-3.1592,-3.1635,-3.1651,-3.17,-3.1673,-3.169,-3.1729,-3.1747,-3.1801,-3.174,-3.1802,-3.1804,-3.1793,-3.1908,-3.1923,-3.2013,-3.1871,-3.1874,-3.1875,0,-3.1382,-3.1422,-3.1518,-3.1555,-3.1576,-3.162,-3.1667,-3.1708,-3.1744,-3.1752,-3.1784,-3.1781,-3.184,-3.18,-3.1882,-3.184,-3.1866,-3.1879,-3.1883,-3.1889,-3.1844,-3.1917,-3.2042,-3.2056,-3.1895,-3.1893,-3.1892,0,-3.1452,-3.153,-3.1598,-3.1618,-3.1663,-3.1695,-3.1716,-3.175,-3.1779,-3.182,-3.184,-3.1887,-3.1913,-3.1949,-3.1959,-3.1929,-3.2041,-3.2002,-3.2049,-3.2049,-3.2073,-3.2071,-3.2204,-3.209,-3.2089,-3.2089,-3.2089,0,-3.1552,-3.1611,-3.163,-3.1672,-3.1738,-3.1745,-3.181,-3.1829,-3.1859,-3.1905,-3.1898,-3.1941,-3.1951,-3.1996,-3.2004,-3.2071,-3.2082,-3.2091,-3.2092,-3.2091,-3.209,-3.2108,-3.2102,-3.2093,-3.2092,-3.2091,-3.2091,0,-3.1641,-3.1656,-3.173,-3.1767,-3.1777,-3.1825,-3.1857,-3.1897,-3.1911,-3.1969,-3.1982,-3.2004,-3.2057,-3.2071,-3.2133,-3.2139,-3.2218,-3.2213,-3.2206,-3.2206,-3.2252,-3.2248,-3.2401,-3.2422,-3.2294,-3.2295,-3.2296,0,-3.1705,-3.175,-3.1793,-3.1823,-3.1844,-3.1893,-3.1924,-3.1932,-3.1965,-3.2011,-3.2046,-3.2098,-3.2139,-3.2224,-3.2246,-3.2294,-3.2291,-3.2341,-3.2298,-3.2296,-3.2292,-3.2289,-3.2294,-3.2349,-3.2351,-3.2352,-3.2353,0,-3.1816,-3.1821,-3.1866,-3.1914,-3.1951,-3.1988,-3.2025,-3.205,-3.2064,-3.21,-3.2155,-3.2187,-3.2252,-3.2304,-3.2353,-3.2374,-3.2366,-3.2366,-3.238,-3.238,-3.2374,-3.2378,-3.2228,-3.2363,-3.2362,-3.2361,-3.236,-3.236,-3.1894,-3.1934,-3.1971,-3.2021,-3.205,-3.2084,-3.2124,-3.2143,-3.2189,-3.2242,-3.2245,-3.2304,-3.234,-3.2405,-3.2429,-3.2476,-3.2461,-3.248,-3.2485,-3.249,-3.2494,-3.2366,-3.2485,-3.2485,-3.2484,-3.2484,-3.2484,0,-3.2005,-3.2029,-3.2075,-3.2126,-3.2166,-3.2155,-3.2195,-3.2229,-3.2281,-3.2316,-3.2358,-3.2421,-3.2472,-3.2498,-3.2548,-3.2581,-3.2578,-3.2594,-3.2591,-3.2596,-3.2505,-3.2488,-3.2595,-3.2595,-3.2595,-3.2595,-3.2594,-3.2594,-3.2068,-3.2136,-3.2146,-3.2228,-3.2251,-3.2308,-3.2332,-3.2364,-3.2392,-3.2463,-3.2505,-3.2522,-3.2554,-3.2607,-3.2653,-3.2659,-3.2678,-3.2696,-3.27,-3.2614,-3.2603,-3.2592,-3.2576,-3.27,-3.27,-3.2788,-3.2789,-3.279]}]]